Home   Weather   Debrecen   Past weeks

Flag for Hungary Past Weather in Debrecen, Hungary — Yesterday and Last 2 Weeks

Now
73 °F

Sunny.


Feels Like: 77 °F
Forecast: 52 / 74 °F
Wind: 7 mph from Southwest

Location: Debrecen Airport

Current Time: Sep 29, 2016 at 8:45:08 PM

Latest Report: Sep 29, 2016 at 4:45 PM


Visibility: 10 mi

Pressure: 30.18 "Hg

Humidity: 47%

Dew Point: 52 °F

Location of DebrecenLocation

Past Weather in Debrecen — Graph

°F

Debrecen Temperature Yesterday

Maximum temperature yesterday: 72 °F (at 1:45 PM)
Minimum temperature yesterday: 43 °F (at 6:15 AM)
Average temperature yesterday: 60 °F

High & Low Weather Summary for the Past Weeks

 TemperatureHumidityPressure
High82 °F (Sep 14, 4:15 PM)100% (Sep 18, 5:45 AM)30.39 "Hg (Sep 18, 5:45 AM)
Low41 °F (Sep 23, 5:15 AM)33% (Sep 23, 4:45 PM)29.71 "Hg (Sep 19, 9:15 AM)
Average62 °F67%30.07 "Hg
* Reported Sep 14 4:15 PM — Sep 29 4:45 PM, Debrecen, Weather by CustomWeather, © 2016

Note: Actual official high and low records may vary slightly from our data, if they occured in-between our weather recording intervals... More about our weather records

Advertising

Debrecen Weather History for the Previous 24 Hours

Scroll right to see more
 ConditionsComfort  
Time TempWeatherWind HumidityBarometerVisibility
4:45 PM
Thu, Sep 29
73 °FSunny.7 mph47%30.18 "Hg10 mi
4:15 PM75 °FSunny.8 mph44%30.18 "Hg10 mi
3:45 PM73 °FSunny.7 mph47%30.18 "Hg10 mi
3:15 PM75 °FSunny.8 mph47%30.18 "Hg10 mi
2:45 PM73 °FSunny.9 mph47%30.18 "Hg10 mi
2:15 PM73 °FSunny.12 mph47%30.18 "Hg10 mi
1:45 PM73 °FSunny.12 mph47%30.21 "Hg10 mi
1:15 PM72 °FSunny.9 mph53%30.21 "Hg10 mi
12:45 PM70 °FSunny.8 mph53%30.24 "Hg10 mi
12:15 PM68 °FSunny.9 mph60%30.24 "Hg10 mi
11:45 AM66 °FSunny.8 mph60%30.24 "Hg10 mi
11:15 AM64 °FSunny.9 mph60%30.24 "Hg10 mi
10:45 AM63 °FSunny.9 mph64%30.27 "Hg10 mi
10:15 AM61 °FSunny.9 mph63%30.27 "Hg10 mi
9:45 AM59 °FSunny.9 mph68%30.27 "Hg10 mi
9:15 AM57 °FSunny.9 mph67%30.27 "Hg10 mi
8:45 AM55 °FSunny.10 mph72%30.24 "Hg10 mi
8:15 AM54 °FSunny.6 mph77%30.27 "Hg10 mi
7:45 AM52 °FSunny.5 mph77%30.27 "Hg10 mi
7:15 AM50 °FSunny.9 mph82%30.24 "Hg10 mi
6:45 AM50 °FSunny.6 mph82%30.24 "Hg10 mi
6:15 AM50 °FClear.6 mph82%30.24 "Hg10 mi
5:45 AM50 °FClear.5 mph82%30.24 "Hg10 mi
5:15 AM50 °FClear.5 mph82%30.24 "Hg10 mi
10:45 PM
Wed, Sep 28
54 °FClear.6 mph72%30.30 "Hg10 mi
10:15 PM54 °FClear.3 mph72%30.30 "Hg10 mi
9:45 PM54 °FClear.3 mph72%30.30 "Hg10 mi
9:15 PM54 °FClear.3 mph77%30.30 "Hg10 mi
8:45 PM55 °FClear.3 mph67%30.30 "Hg10 mi
8:15 PM59 °FClear.5 mph59%30.30 "Hg10 mi
Weather by CustomWeather, © 2016

See weather overviewHow to use our weather pages